Find Starlink 30876

NORAD ID: 58404 Int'l Des: 2023-180 Owner: SPXS Country: US Constellation: starlink operational
LEOCIRCULAR

現在のビュー

3D地球を読み込み中...

About Starlink 30876

Starlink 30876 (NORAD 58404) is a starlink constellation satellite (v2 mini) launched Nov 22, 2023 by SPXS of US. It operates in LEO, CIRCULAR orbit with a mass of 730.00 kg.

次回通過

Passes for default location (London). Set your location on the main map for personalized predictions.

高度履歴

Loading altitude history...

軌道要素

1 58404U 23180C 26235.29749291 -.00000682 00000-0 -15284-4 0 9998
2 58404 42.9997 191.8836 0001443 287.6193 72.4501 15.27567259153105
Epoch: Aug 23, 2026 • Age: 27 hours

現在のステータス

高度 487.1 km
遠地点 / 近地点 N/A
速度 7.63 km/s
衛星直下点 43.14°N, 147.66°E
打ち上げ日 Nov 22, 2023
運用期間 2.7 years
タイプ internet

技術仕様

分類 Payload
質量 730.00 kg
乾燥質量 700.00 kg
総質量 730.00 kg
長さ 0.30 m
直径 4.10 m
スパン 29.00 m
形状 Box + pan
製造者 SPXS
バスタイプ Starlink V2M
フェーズステータス In Orbit
所有者/国 SPXS/US

Most Searched